Weather History for Arlington, WA

Change the Weather History Date:

Saturday, May 18, 2013

  Actual Average Record
Temperature  
Mean Temperature 56 °F -  
Max Temperature 60 °F 61 °F 75 °F (2006)
Min Temperature 51 °F 40 °F 35 °F (2003)
Degree Days  
Heating Degree Days 10    
Growing Degree Days 6 (Base 50)    
Moisture  
Dew Point 46 °F    
Average Humidity 71    
Maximum Humidity 94    
Minimum Humidity 55    
Precipitation  
Precipitation 0.00 in - - ()
Sea Level Pressure  
Sea Level Pressure 30.17 in    
Wind  
Wind Speed 6 mph (South)    
Max Wind Speed 13 mph    
Max Gust Speed -    
Visibility 10 miles    
Events      
Averages and records for this station are not official NWS values.
T = Trace of Precipitation, MM = Missing Value Source: NWS Daily Summary

Daily Weather History Graph

Daily Weather History Graph

Search for Another Location

Airport:

Trip Planner

Search our weather history database for the weather conditions in past years. The results will help you decide how hot, cold, wet, or windy it might be!

Date:

Astronomy

May. 18, 2013 Rise Set
Actual Time 5:25 AM PDT 8:45 PM PDT
Civil Twilight 4:47 AM PDT 9:23 PM PDT
Nautical Twilight 3:57 AM PDT 10:13 PM PDT
Astronomical Twilight 2:53 AM PDT 11:19 PM PDT
Moon 1:23 PM PDT (5/18) 1:53 AM PDT (5/18)
Length of Visible Light 16h 36m
Length of Day
15h 20m
First Quarter, 56% of the Moon is Illuminated
May 18
First Quarter
May 24
Full
May 31
Last Quarter
Jun 8
New
Jun 16
First Quarter

Hourly Weather History & Observations

Time (PDT) Temp. Dew Point Humidity Pressure Visibility Wind Dir Wind Speed Gust Speed Precip Events Conditions
12:15 AM 53.6 °F 50.0 °F 88% 30.07 in 10.0 mi Calm Calm - N/A   Unknown
12:35 AM 53.6 °F 51.8 °F 94% 30.07 in 10.0 mi Calm Calm - N/A   Unknown
12:55 AM 53.6 °F 50.0 °F 88% 30.07 in 10.0 mi SSE 5.8 mph - N/A   Unknown
1:15 AM 53.6 °F 46.4 °F 77% 30.07 in 10.0 mi SSE 8.1 mph - N/A   Unknown
1:35 AM 53.6 °F 46.4 °F 77% 30.08 in 10.0 mi SSE 9.2 mph - N/A   Unknown
1:55 AM 53.6 °F 46.4 °F 77% 30.08 in 10.0 mi SSE 10.4 mph - N/A   Unknown
2:15 AM 53.6 °F 46.4 °F 77% 30.08 in 10.0 mi SSE 8.1 mph - N/A   Unknown
2:35 AM 53.6 °F 46.4 °F 77% 30.08 in 10.0 mi SSE 12.7 mph - N/A   Unknown
2:55 AM 53.6 °F 46.4 °F 77% 30.08 in 10.0 mi SSE 10.4 mph - N/A   Unknown
3:15 AM 51.8 °F 46.4 °F 82% 30.08 in 10.0 mi SSE 9.2 mph - N/A   Unknown
3:35 AM 51.8 °F 46.4 °F 82% 30.09 in 10.0 mi SSE 10.4 mph - N/A   Unknown
3:55 AM 51.8 °F 46.4 °F 82% 30.09 in 10.0 mi SSE 10.4 mph - N/A   Unknown
4:15 AM 51.8 °F 46.4 °F 82% 30.09 in 10.0 mi SSE 9.2 mph - N/A   Unknown
4:35 AM 51.8 °F 46.4 °F 82% 30.09 in 10.0 mi SSE 9.2 mph - N/A   Unknown
4:55 AM 51.8 °F 46.4 °F 82% 30.09 in 10.0 mi South 10.4 mph - N/A   Unknown
5:15 AM 51.8 °F 46.4 °F 82% 30.09 in 10.0 mi SSE 11.5 mph - N/A   Unknown
5:35 AM 51.8 °F 46.4 °F 82% 30.10 in 10.0 mi SSE 8.1 mph - N/A   Unknown
5:55 AM 51.8 °F 46.4 °F 82% 30.11 in 10.0 mi SSE 8.1 mph - N/A   Unknown
6:15 AM 51.8 °F 46.4 °F 82% 30.11 in 10.0 mi SSE 8.1 mph - N/A   Unknown
6:35 AM 53.6 °F 46.4 °F 77% 30.11 in 10.0 mi SSE 5.8 mph - N/A   Unknown
6:55 AM 53.6 °F 46.4 °F 77% 30.12 in 10.0 mi SE 8.1 mph - N/A   Unknown
7:15 AM 53.6 °F 46.4 °F 77% 30.12 in 10.0 mi SE 6.9 mph - N/A   Unknown
7:35 AM 53.6 °F 46.4 °F 77% 30.12 in 10.0 mi SE 8.1 mph - N/A   Unknown
7:55 AM 53.6 °F 46.4 °F 77% 30.12 in 10.0 mi SE 8.1 mph - N/A   Unknown
8:15 AM 53.6 °F 46.4 °F 77% 30.13 in 10.0 mi SSE 8.1 mph - N/A   Unknown
8:35 AM 55.4 °F 46.4 °F 72% 30.13 in 10.0 mi SE 8.1 mph - N/A   Unknown
8:55 AM 55.4 °F 46.4 °F 72% 30.13 in 10.0 mi SE 9.2 mph - N/A   Unknown
9:15 AM 55.4 °F 46.4 °F 72% 30.13 in 10.0 mi SSE 9.2 mph - N/A   Unknown
9:35 AM 55.4 °F 44.6 °F 67% 30.14 in 10.0 mi South 11.5 mph - N/A   Unknown
9:55 AM 55.4 °F 44.6 °F 67% 30.14 in 10.0 mi SSE 9.2 mph - N/A   Unknown
10:15 AM 55.4 °F 44.6 °F 67% 30.14 in 10.0 mi SSE 10.4 mph - N/A   Unknown
10:35 AM 55.4 °F 44.6 °F 67% 30.15 in 10.0 mi South 8.1 mph - N/A   Unknown
10:55 AM 55.4 °F 44.6 °F 67% 30.15 in 10.0 mi South 11.5 mph - N/A   Unknown
11:15 AM 55.4 °F 44.6 °F 67% 30.16 in 10.0 mi SSW 6.9 mph - N/A   Unknown
11:35 AM 55.4 °F 44.6 °F 67% 30.16 in 10.0 mi SSW 4.6 mph - N/A   Unknown
12:15 PM 55.4 °F 44.6 °F 67% 30.17 in 10.0 mi SSW 4.6 mph - N/A   Unknown
12:35 PM 57.2 °F 46.4 °F 67% 30.17 in 10.0 mi South 6.9 mph - N/A   Unknown
12:55 PM 57.2 °F 44.6 °F 63% 30.18 in 10.0 mi South 8.1 mph - N/A   Unknown
1:15 PM 57.2 °F 44.6 °F 63% 30.18 in 10.0 mi SW 8.1 mph - N/A   Unknown
1:35 PM 57.2 °F 42.8 °F 59% 30.18 in 10.0 mi SW 9.2 mph - N/A   Unknown
1:55 PM 59.0 °F 44.6 °F 59% 30.19 in 10.0 mi SSW 6.9 mph - N/A   Unknown
2:15 PM 57.2 °F 44.6 °F 63% 30.19 in 10.0 mi WSW 8.1 mph - N/A   Unknown
2:35 PM 57.2 °F 44.6 °F 63% 30.19 in 10.0 mi South 5.8 mph - N/A   Unknown
2:55 PM 60.8 °F 44.6 °F 55% 30.19 in 10.0 mi South 5.8 mph - N/A   Unknown
3:15 PM 60.8 °F 44.6 °F 55% 30.19 in 10.0 mi Calm Calm - N/A   Unknown
3:35 PM 60.8 °F 44.6 °F 55% 30.20 in 10.0 mi SW 3.5 mph - N/A   Unknown
3:55 PM 59.0 °F 42.8 °F 55% 30.20 in 10.0 mi Calm Calm - N/A   Unknown
4:15 PM 59.0 °F 42.8 °F 55% 30.20 in 10.0 mi SW 5.8 mph - N/A   Unknown
4:35 PM 57.2 °F 44.6 °F 63% 30.21 in 10.0 mi WSW 4.6 mph - N/A   Unknown
4:55 PM 57.2 °F 42.8 °F 59% 30.21 in 10.0 mi Calm Calm - N/A   Unknown
5:15 PM 59.0 °F 42.8 °F 55% 30.21 in 10.0 mi Calm Calm - N/A   Unknown
5:35 PM 60.8 °F 44.6 °F 55% 30.21 in 10.0 mi Calm Calm - N/A   Unknown
5:55 PM 60.8 °F 44.6 °F 55% 30.21 in 10.0 mi Calm Calm - N/A   Unknown
6:15 PM 60.8 °F 46.4 °F 59% 30.21 in 10.0 mi Calm Calm - N/A   Unknown
6:35 PM 59.0 °F 46.4 °F 63% 30.22 in 10.0 mi NW 6.9 mph - N/A   Unknown
6:55 PM 59.0 °F 46.4 °F 63% 30.22 in 10.0 mi NW 4.6 mph - N/A   Unknown
7:15 PM 57.2 °F 44.6 °F 63% 30.22 in 10.0 mi NW 8.1 mph - N/A   Unknown
7:35 PM 57.2 °F 46.4 °F 67% 30.23 in 10.0 mi WNW 6.9 mph - N/A   Unknown
7:55 PM 57.2 °F 46.4 °F 67% 30.23 in 10.0 mi WNW 4.6 mph - N/A   Unknown
8:15 PM 55.4 °F 46.4 °F 72% 30.24 in 10.0 mi NW 6.9 mph - N/A   Unknown
8:35 PM 55.4 °F 46.4 °F 72% 30.25 in 10.0 mi NW 6.9 mph - N/A   Unknown
8:55 PM 55.4 °F 46.4 °F 72% 30.25 in 10.0 mi NW 5.8 mph - N/A   Unknown
9:15 PM 55.4 °F 46.4 °F 72% 30.27 in 10.0 mi NW 5.8 mph - N/A   Unknown
9:35 PM 55.4 °F 46.4 °F 72% 30.27 in 10.0 mi NW 4.6 mph - N/A   Unknown
10:15 PM 53.6 °F 46.4 °F 77% 30.28 in 10.0 mi WNW 4.6 mph - N/A   Unknown
10:35 PM 53.6 °F 46.4 °F 77% 30.28 in 10.0 mi NW 5.8 mph - N/A   Unknown
10:55 PM 53.6 °F 46.4 °F 77% 30.29 in 10.0 mi NW 4.6 mph - N/A   Unknown
11:15 PM 53.6 °F 46.4 °F 77% 30.29 in 10.0 mi NW 4.6 mph - N/A   Unknown
11:35 PM 53.6 °F 46.4 °F 77% 30.30 in 10.0 mi Calm Calm - N/A   Unknown
11:55 PM 53.6 °F 46.4 °F 77% 30.30 in 10.0 mi Calm Calm - N/A   Unknown